N4NVD-13 Weather Reports


Display with metric or nautical units.
time (UTC)temp
F
wind
direction
speed
MPH
gust
MPH
rain 1hr
in
rain 24hr
in
rain mn
in
humidity
%
barometer
mb
20260506100019 76 140 0.0 2.0 0.00 0.00 0.00 97 1007.4
20260506095518 76 234 0.0 3.0 0.00 0.00 0.00 97 1007.8
20260506095013 76 221 2.0 7.0 0.00 0.00 0.00 96 1007.4
20260506094511 76 232 2.0 4.0 0.00 0.00 0.00 97 1007.3
20260506094009 76 152 4.0 4.0 0.00 0.00 0.00 97 1007.2
20260506093507 76 197 0.0 3.0 0.00 0.00 0.00 97 1007.3
20260506093004 76 212 3.0 5.0 0.00 0.00 0.00 97 1007.5
20260506092502 76 208 2.0 3.0 0.00 0.00 0.00 97 1007.3
20260506091958 76 212 4.0 7.0 0.00 0.00 0.00 97 1007.0
20260506091457 76 216 3.0 7.0 0.00 0.00 0.00 97 1007.4
20260506090953 76 154 1.0 7.0 0.00 0.00 0.00 97 1007.4
20260506090451 76 214 4.0 7.0 0.00 0.00 0.00 97 1007.2
20260506085947 76 212 3.0 5.0 0.00 0.00 0.00 97 1007.4
20260506085444 76 214 4.0 6.0 0.00 0.00 0.00 97 1007.3
20260506084941 76 180 2.0 6.0 0.00 0.00 0.00 97 1007.1
20260506084438 76 152 0.0 7.0 0.00 0.00 0.00 97 1007.3
20260506083934 76 235 2.0 4.0 0.00 0.00 0.00 97 1007.1
20260506083431 76 209 1.0 6.0 0.00 0.00 0.00 97 1007.2
20260506082928 76 228 2.0 5.0 0.00 0.00 0.00 97 1007.2
20260506082425 76 215 6.0 9.0 0.00 0.00 0.00 97 1007.1
20260506081921 75 222 3.0 6.0 0.00 0.00 0.00 97 1007.2
20260506081420 75 182 4.0 10.0 0.00 0.00 0.00 97 1007.0
20260506080916 75 185 1.0 9.0 0.00 0.00 0.00 97 1007.0
20260506080413 75 137 0.0 7.0 0.00 0.00 0.00 97 1007.1
20260506073357 75 154 3.0 8.0 0.00 0.00 0.00 98 1007.3
20260506072854 75 186 1.0 5.0 0.00 0.00 0.00 98 1007.2
20260506072352 75 165 2.0 10.0 0.00 0.00 0.00 98 1007.2
20260506071849 75 157 3.0 8.0 0.00 0.00 0.00 98 1007.5
20260506071347 75 172 0.0 10.0 0.00 0.00 0.00 98 1007.6
20260506070843 75 227 3.0 10.0 0.00 0.00 0.00 98 1007.6
20260506070341 75 206 4.0 6.0 0.00 0.00 0.00 98 1007.4
20260506062318 75 194 2.0 8.0 0.00 0.00 0.00 98 1007.7
20260506061814 75 113 2.0 5.0 0.00 0.00 0.00 98 1007.9
20260506061311 75 229 3.0 7.0 0.00 0.00 0.00 98 1007.8
20260506060809 75 220 3.0 6.0 0.00 0.00 0.00 98 1007.8
20260506060307 75 231 0.0 5.0 0.00 0.00 0.00 98 1007.9
20260506051238 75 144 3.0 6.0 0.00 0.00 0.00 97 1007.8
20260506050736 75 157 1.0 9.0 0.00 0.00 0.00 97 1007.8
20260506050233 75 160 3.0 6.0 0.00 0.00 0.00 97 1007.7
20260506044724 75 133 6.0 7.0 0.00 0.00 0.00 96 1007.6
20260506044221 75 147 5.0 7.0 0.00 0.00 0.00 96 1007.9
20260506043719 76 213 2.0 10.0 0.00 0.00 0.00 96 1007.8
20260506043216 76 237 3.0 3.0 0.00 0.00 0.00 96 1007.8
20260506042715 76 159 0.0 4.0 0.00 0.00 0.00 96 1007.6
20260506042213 76 164 0.0 5.0 0.00 0.00 0.00 96 1007.5
20260506041711 76 215 0.0 6.0 0.00 0.00 0.00 95 1007.7
20260506041208 76 150 0.0 6.0 0.00 0.00 0.00 95 1007.5
20260506040705 76 206 4.0 7.0 0.00 0.00 0.00 95 1007.5
20260506040201 76 209 1.0 6.0 0.00 0.00 0.00 95 1007.5
20260506035653 76 201 2.0 8.0 0.00 0.00 0.00 95 1007.5
20260506035149 76 159 3.0 5.0 0.00 0.00 0.00 95 1007.3
20260506034646 76 159 2.0 7.0 0.00 0.00 0.00 95 1007.2
20260506034143 76 211 0.0 8.0 0.00 0.00 0.00 95 1007.0
20260506033641 76 188 0.0 4.0 0.00 0.00 0.00 95 1006.9
20260506033137 76 133 3.0 4.0 0.00 0.00 0.00 95 1007.0
20260506032634 76 152 3.0 5.0 0.00 0.00 0.00 94 1006.9
20260506032132 77 199 2.0 5.0 0.00 0.00 0.00 94 1006.9
20260506031628 77 201 4.0 7.0 0.00 0.00 0.00 94 1007.0
20260506031125 77 180 4.0 7.0 0.00 0.00 0.00 94 1006.6
20260506030624 77 223 7.0 9.0 0.00 0.00 0.00 93 1006.6
20260506030121 77 172 0.0 12.0 0.00 0.00 0.00 93 1006.5
20260506025618 77 158 8.0 10.0 0.00 0.00 0.00 93 1006.4
20260506025114 77 158 6.0 8.0 0.00 0.00 0.00 93 1006.5
20260506024612 77 213 4.0 10.0 0.00 0.00 0.00 92 1006.3
20260506024107 77 154 4.0 8.0 0.00 0.00 0.00 92 1006.3
20260506023604 77 180 5.0 6.0 0.00 0.00 0.00 92 1006.5
20260506023101 78 162 6.0 8.0 0.00 0.00 0.00 91 1006.1
20260506022558 78 180 2.0 6.0 0.00 0.00 0.00 91 1006.4
20260506022055 78 180 2.0 7.0 0.00 0.00 0.00 91 1006.1
20260506021553 78 165 5.0 9.0 0.00 0.00 0.00 91 1006.2
20260506021050 78 194 2.0 7.0 0.00 0.00 0.00 91 1006.4
20260506020547 78 157 5.0 7.0 0.00 0.00 0.00 91 1006.2
20260506020044 78 221 2.0 7.0 0.00 0.00 0.00 91 1006.2
20260506015542 78 170 3.0 6.0 0.00 0.00 0.00 91 1006.4
20260506015039 78 166 3.0 7.0 0.00 0.00 0.00 91 1006.1
20260506014536 78 212 0.0 4.0 0.00 0.00 0.00 91 1006.2
20260506014031 78 194 3.0 6.0 0.00 0.00 0.00 91 1006.0
20260506013531 78 154 5.0 6.0 0.00 0.00 0.00 91 1006.0
20260506013027 78 195 0.0 5.0 0.00 0.00 0.00 91 1006.0
20260506012523 78 166 1.0 3.0 0.00 0.00 0.00 90 1006.0
20260506012020 78 210 3.0 4.0 0.00 0.00 0.00 90 1005.8
20260506011518 78 212 2.0 7.0 0.00 0.00 0.00 90 1005.7
20260506011014 79 154 4.0 7.0 0.00 0.00 0.00 89 1005.7
20260506010514 79 207 5.0 7.0 0.00 0.00 0.00 89 1005.5
20260506010009 79 161 4.0 6.0 0.00 0.00 0.00 89 1005.5
20260506005507 79 199 3.0 7.0 0.00 0.00 0.00 88 1005.3
20260506005002 79 173 6.0 8.0 0.00 0.00 0.00 88 1005.1
20260506004500 80 185 2.0 11.0 0.00 0.00 0.00 87 1005.0
20260506003956 80 165 2.0 6.0 0.00 0.00 0.00 88 1005.1
20260506003453 80 214 3.0 7.0 0.00 0.00 0.00 87 1005.1
20260506002949 80 117 2.0 7.0 0.00 0.00 0.00 87 1004.9
20260506002445 80 186 4.0 11.0 0.00 0.00 0.00 87 1005.0
20260506001941 80 157 3.0 7.0 0.00 0.00 0.00 87 1004.8
20260506001438 81 157 1.0 7.0 0.00 0.00 0.00 87 1005.0
20260506000935 81 205 3.0 7.0 0.00 0.00 0.00 86 1005.0
20260506000433 81 156 2.0 6.0 0.00 0.00 0.00 86 1005.2
20260505235929 81 180 1.0 7.0 0.00 0.00 0.00 86 1005.2
20260505235428 81 178 4.0 13.0 0.00 0.00 0.00 85 1005.1
20260505234924 82 135 6.0 7.0 0.00 0.00 0.00 85 1005.0
20260505234421 82 245 2.0 9.0 0.00 0.00 0.00 85 1005.2
20260505233918 82 141 6.0 9.0 0.00 0.00 0.00 85 1005.0
20260505233416 82 166 3.0 10.0 0.00 0.00 0.00 85 1005.0
20260505232913 82 223 6.0 6.0 0.00 0.00 0.00 85 1005.2
20260505232411 82 188 1.0 6.0 0.00 0.00 0.00 85 1004.9
20260505231907 82 175 3.0 9.0 0.00 0.00 0.00 84 1005.0
20260505231405 83 157 6.0 6.0 0.00 0.00 0.00 84 1004.5
20260505230903 83 240 5.0 9.0 0.00 0.00 0.00 84 1004.9
20260505230400 83 169 3.0 8.0 0.00 0.00 0.00 84 1004.7
20260505225856 83 165 1.0 9.0 0.00 0.00 0.00 84 1004.8
20260505225354 83 210 6.0 10.0 0.00 0.00 0.00 83 1004.9
20260505224849 84 129 4.0 7.0 0.00 0.00 0.00 81 1004.8
20260505224347 84 188 2.0 10.0 0.00 0.00 0.00 80 1005.0
20260505223844 85 202 3.0 8.0 0.00 0.00 0.00 80 1004.9
20260505223341 84 195 4.0 8.0 0.00 0.00 0.00 80 1004.8
20260505222836 84 183 5.0 10.0 0.00 0.00 0.00 80 1004.8
20260505222333 85 213 5.0 7.0 0.00 0.00 0.00 80 1005.0
20260505221830 84 219 7.0 10.0 0.00 0.00 0.00 80 1004.9
20260505221327 85 233 5.0 7.0 0.00 0.00 0.00 79 1005.0
20260505220824 85 191 3.0 6.0 0.00 0.00 0.00 80 1004.8
20260505220321 86 212 6.0 7.0 0.00 0.00 0.00 80 1005.1
20260505215819 85 229 3.0 8.0 0.00 0.00 0.00 80 1004.9
20260505215317 84 216 7.0 9.0 0.00 0.00 0.00 81 1005.0
20260505214814 84 232 2.0 9.0 0.00 0.00 0.00 81 1005.1
20260505214311 85 222 9.0 9.0 0.00 0.00 0.00 80 1005.1
20260505213808 86 210 2.0 4.0 0.00 0.00 0.00 79 1004.8
20260505213306 84 225 3.0 6.0 0.00 0.00 0.00 81 1005.3
20260505212801 84 242 6.0 10.0 0.00 0.00 0.00 81 1005.3
20260505212259 85 198 3.0 7.0 0.00 0.00 0.00 80 1005.3
20260505211755 84 205 5.0 10.0 0.00 0.00 0.00 82 1005.0
20260505211253 84 217 8.0 11.0 0.00 0.00 0.00 82 1005.3
20260505210749 84 144 5.0 9.0 0.00 0.00 0.00 81 1005.5
20260505210246 84 204 6.0 10.0 0.00 0.00 0.00 81 1005.9
20260505205743 84 225 6.0 11.0 0.00 0.00 0.00 81 1005.8
20260505205242 85 148 2.0 5.0 0.00 0.00 0.00 81 1005.9
20260505204738 85 180 0.0 11.0 0.00 0.00 0.00 80 1006.0
20260505204236 84 227 3.0 11.0 0.00 0.00 0.00 80 1005.9
20260505203733 84 200 5.0 9.0 0.00 0.00 0.00 80 1006.1
20260505203230 83 222 9.0 12.0 0.00 0.00 0.00 81 1006.2
20260505202725 84 210 8.0 11.0 0.00 0.00 0.00 81 1006.1
20260505202222 85 218 5.0 7.0 0.00 0.00 0.00 82 1006.2
20260505201718 84 210 10.0 11.0 0.00 0.00 0.00 81 1006.4
20260505201216 83 157 5.0 9.0 0.00 0.00 0.00 82 1006.2
20260505200714 83 233 2.0 6.0 0.00 0.00 0.00 81 1006.4
20260505200211 83 225 5.0 16.0 0.00 0.00 0.00 81 1006.5
20260505195706 83 231 5.0 10.0 0.00 0.00 0.00 82 1006.6
20260505195204 83 226 11.0 15.0 0.00 0.00 0.00 82 1006.7
20260505194701 83 233 6.0 11.0 0.00 0.00 0.00 82 1006.6
20260505194157 83 207 7.0 13.0 0.00 0.00 0.00 82 1006.7
20260505193654 83 229 3.0 10.0 0.00 0.00 0.00 83 1006.9
20260505193151 83 226 9.0 11.0 0.00 0.00 0.00 84 1006.9
20260505192649 82 208 4.0 10.0 0.00 0.00 0.00 83 1006.9
20260505192147 82 223 5.0 9.0 0.00 0.00 0.00 84 1006.8
20260505191645 84 213 4.0 9.0 0.00 0.00 0.00 82 1007.0
20260505191143 82 228 7.0 12.0 0.00 0.00 0.00 84 1006.9
20260505190639 82 226 14.0 23.0 0.00 0.00 0.00 82 1007.1
20260505190138 82 223 5.0 24.0 0.00 0.00 0.00 83 1006.9
20260505185636 82 244 7.0 14.0 0.00 0.00 0.00 82 1007.1
20260505185132 82 210 15.0 18.0 0.00 0.00 0.00 82 1007.2
20260505184628 81 225 7.0 12.0 0.00 0.00 0.00 85 1007.2
20260505184126 80 201 7.0 15.0 0.00 0.00 0.00 85 1007.4
20260505183622 80 211 5.0 16.0 0.00 0.00 0.00 85 1007.3
20260505183120 81 212 7.0 15.0 0.00 0.00 0.00 85 1007.5
20260505182616 80 220 12.0 18.0 0.00 0.00 0.00 85 1007.3
20260505182113 80 190 3.0 11.0 0.00 0.00 0.00 85 1007.6
20260505181609 81 216 9.0 14.0 0.00 0.00 0.00 84 1007.6
20260505181107 80 207 13.0 17.0 0.00 0.00 0.00 85 1007.6
20260505180603 81 228 11.0 14.0 0.00 0.00 0.00 85 1007.5
20260505180101 81 207 4.0 12.0 0.00 0.00 0.00 85 1007.6
20260505175556 80 226 5.0 10.0 0.00 0.00 0.00 88 1007.7
20260505175053 80 228 7.0 15.0 0.00 0.00 0.00 86 1007.7
20260505174550 80 215 10.0 13.0 0.00 0.00 0.00 86 1007.9
20260505174045 80 223 6.0 16.0 0.00 0.00 0.00 87 1007.5
20260505173537 79 204 4.0 18.0 0.00 0.00 0.00 88 1008.0
20260505173033 79 213 7.0 11.0 0.00 0.00 0.00 88 1007.9
20260505172531 78 223 4.0 17.0 0.00 0.00 0.00 89 1007.9
20260505172028 78 233 6.0 11.0 0.00 0.00 0.00 89 1007.9
20260505171523 78 217 7.0 20.0 0.00 0.00 0.00 88 1008.0
20260505171020 79 216 5.0 11.0 0.00 0.00 0.00 88 1007.9
20260505170517 79 227 6.0 12.0 0.00 0.00 0.00 88 1008.0
20260505170013 79 246 11.0 17.0 0.00 0.00 0.00 88 1008.0
20260505165508 78 250 13.0 13.0 0.00 0.00 0.00 89 1007.9
20260505165004 78 213 9.0 21.0 0.00 0.00 0.00 88 1008.1
20260505164500 78 231 9.0 12.0 0.00 0.00 0.00 89 1008.0
20260505163959 78 222 11.0 16.0 0.00 0.00 0.00 89 1008.1
20260505163457 78 227 7.0 14.0 0.00 0.00 0.00 89 1008.1
20260505162956 78 213 3.0 15.0 0.00 0.00 0.00 90 1007.9
20260505162451 78 216 3.0 6.0 0.00 0.00 0.00 90 1008.2
20260505161948 77 206 4.0 9.0 0.00 0.00 0.00 91 1008.0
20260505161445 77 216 4.0 10.0 0.00 0.00 0.00 91 1007.9
20260505160942 77 234 5.0 9.0 0.00 0.00 0.00 92 1008.1
20260505160440 76 180 3.0 13.0 0.00 0.00 0.00 92 1008.0
20260505152910 75 230 5.0 15.0 0.00 0.00 0.00 94 1008.0
20260505152407 75 235 5.0 12.0 0.00 0.00 0.00 94 1007.9
20260505151902 75 211 6.0 17.0 0.00 0.00 0.00 94 1007.8
20260505151358 75 154 2.0 9.0 0.00 0.00 0.00 94 1007.9
20260505150855 75 215 7.0 18.0 0.00 0.00 0.00 94 1008.0
20260505150347 75 215 12.0 15.0 0.00 0.00 0.00 94 1007.9
20260505140317 73 150 4.0 11.0 0.00 0.00 0.00 96 1007.8
20260505130240 72 198 4.0 8.0 0.00 0.00 0.00 96 1007.3
20260505124731 72 199 7.0 13.0 0.00 0.00 0.00 97 1007.2
20260505124228 72 157 7.0 9.0 0.00 0.00 0.00 96 1007.2
20260505123723 71 195 3.0 14.0 0.00 0.00 0.00 96 1007.2
20260505123220 71 215 5.0 8.0 0.00 0.00 0.00 96 1007.3
20260505122716 71 203 0.0 7.0 0.00 0.00 0.00 96 1007.3
20260505122214 71 208 8.0 10.0 0.00 0.00 0.00 96 1007.1
20260505121705 71 195 2.0 11.0 0.00 0.00 0.00 96 1007.0
20260505121201 71 201 3.0 10.0 0.00 0.00 0.00 96 1007.2
20260505120658 71 213 5.0 7.0 0.00 0.00 0.00 96 1007.0
20260505120153 71 214 3.0 10.0 0.00 0.00 0.00 96 1006.8
20260505115647 71 214 0.0 7.0 0.00 0.00 0.00 96 1006.8
20260505115146 71 215 7.0 7.0 0.00 0.00 0.00 96 1006.9
20260505114643 71 210 2.0 9.0 0.00 0.00 0.00 96 1007.0
20260505114139 71 201 5.0 14.0 0.00 0.00 0.00 95 1007.0
20260505113635 71 151 6.0 11.0 0.00 0.00 0.00 95 1007.1
20260505113132 71 223 5.0 8.0 0.00 0.00 0.00 96 1007.2
20260505112628 71 205 4.0 11.0 0.00 0.00 0.00 95 1006.9
20260505112126 71 177 2.0 11.0 0.00 0.00 0.00 95 1006.8
20260505111626 71 226 4.0 12.0 0.00 0.00 0.00 95 1006.7
20260505111122 71 226 12.0 12.0 0.00 0.00 0.00 95 1007.0
20260505110618 71 208 5.0 13.0 0.00 0.00 0.00 95 1006.9
20260505110115 71 208 5.0 11.0 0.00 0.00 0.00 95 1006.8
20260505102051 71 222 6.0 13.0 0.00 0.00 0.00 95 1006.8
20260505101550 71 214 6.0 11.0 0.00 0.00 0.00 95 1007.1
20260505101046 71 225 4.0 12.0 0.00 0.00 0.00 95 1007.1
20260505100542 71 216 7.0 7.0 0.00 0.00 0.00 95 1006.9